Weather History for West Palm Beach, FL

Change the Weather History Date:

Thursday, February 27, 2014

  Actual Average Record
Temperature  
Mean Temperature 71 °F 69 °F  
Max Temperature 77 °F 78 °F 89 °F (1959)
Min Temperature 64 °F 61 °F 40 °F (1965)
Degree Days  
Heating Degree Days 0 1  
Month to date heating degree days 13 47  
Since 1 July heating degree days 115 204  
Cooling Degree Days 6 5  
Month to date cooling degree days 224 123  
Year to date cooling degree days 346 231  
Growing Degree Days 20 (Base 50)    
Moisture  
Dew Point 63 °F    
Average Humidity 73    
Maximum Humidity 87    
Minimum Humidity 58    
Precipitation  
Precipitation 0.02 in 0.11 in 2.25 in (1983)
Month to date precipitation 0.91 2.70  
Year to date precipitation 11.33 5.83  
Snow  
Snow 0.00 in - - ()
Month to date snowfall 0.0  
Since 1 July snowfall 0.0  
Snow Depth 0.00 in    
Sea Level Pressure  
Sea Level Pressure 29.84 in    
Wind  
Wind Speed 10 mph (NW)    
Max Wind Speed 17 mph    
Max Gust Speed 23 mph    
Visibility 10 miles    
Events Rain    
T = Trace of Precipitation, MM = Missing Value Source: NWS Daily Summary

Daily Weather History Graph

Daily Weather History Graph

Search for Another Location

Airport:

Trip Planner

Search our weather history database for the weather conditions in past years. The results will help you decide how hot, cold, wet, or windy it might be!

Date:

Astronomy

Feb. 27, 2014 Rise Set
Actual Time 6:46 AM EST 6:20 PM EST
Civil Twilight 6:22 AM EST 6:43 PM EST
Nautical Twilight 5:55 AM EST 7:10 PM EST
Astronomical Twilight 5:28 AM EST 7:37 PM EST
Moon 5:10 AM EST (2/27) 4:49 PM EST (2/27)
Length of Visible Light 12h 20m
Length of Day
11h 34m
Waning Crescent, 4% of the Moon is Illuminated
Feb 27
Waning Crescent
Mar 1
New
Mar 8
First Quarter
Mar 16
Full
Mar 23
Last Quarter

Hourly Weather History & Observations

Time (EST) Temp. Dew Point Humidity Pressure Visibility Wind Dir Wind Speed Gust Speed Precip Events Conditions
12:53 AM 73.0 °F 69.1 °F 87% 29.79 in 10.0 mi SW 12.7 mph - N/A   Mostly Cloudy
1:53 AM 73.0 °F 69.1 °F 87% 29.78 in 10.0 mi SW 12.7 mph 19.6 mph 0.00 in   Mostly Cloudy
2:15 AM 73.0 °F 69.1 °F 87% 29.78 in 10.0 mi SW 12.7 mph - N/A   Overcast
2:40 AM 73.0 °F 69.1 °F 87% 29.77 in 10.0 mi SW 12.7 mph - N/A   Overcast
2:53 AM 73.0 °F 69.1 °F 87% 29.76 in 10.0 mi WSW 13.8 mph - N/A   Overcast
3:33 AM 73.0 °F 69.1 °F 87% 29.76 in 10.0 mi SW 10.4 mph - N/A   Mostly Cloudy
3:53 AM 73.0 °F 69.1 °F 87% 29.76 in 10.0 mi WSW 15.0 mph - N/A   Mostly Cloudy
4:53 AM 73.0 °F 68.0 °F 84% 29.78 in 10.0 mi WSW 15.0 mph - N/A   Mostly Cloudy
5:04 AM 73.0 °F 66.9 °F 81% 29.78 in 10.0 mi West 12.7 mph - N/A   Overcast
5:53 AM 71.1 °F 64.9 °F 81% 29.79 in 10.0 mi West 15.0 mph - N/A   Mostly Cloudy
6:12 AM 71.1 °F 66.0 °F 84% 29.80 in 10.0 mi West 12.7 mph - N/A   Mostly Cloudy
6:49 AM 71.6 °F 66.2 °F 83% 29.82 in 10.0 mi West 12.7 mph - 0.00 in Rain Light Rain
6:53 AM 70.0 °F 66.0 °F 87% 29.82 in 10.0 mi WNW 10.4 mph - 0.00 in Rain Light Rain
7:45 AM 69.1 °F 63.0 °F 81% 29.85 in 10.0 mi NNW 13.8 mph - 0.00 in   Overcast
7:53 AM 68.0 °F 63.0 °F 84% 29.85 in 10.0 mi NNW 13.8 mph - 0.00 in   Overcast
8:47 AM 69.8 °F 60.8 °F 73% 29.88 in 10.0 mi NW 10.4 mph - N/A   Overcast
8:53 AM 69.1 °F 60.1 °F 73% 29.88 in 10.0 mi NNW 11.5 mph - N/A   Overcast
9:21 AM 70.0 °F 61.0 °F 73% 29.88 in 10.0 mi NW 3.5 mph - N/A   Overcast
9:53 AM 71.1 °F 62.1 °F 73% 29.90 in 10.0 mi NNW 8.1 mph - N/A   Overcast
10:53 AM 73.9 °F 61.0 °F 64% 29.89 in 10.0 mi West 6.9 mph - N/A   Overcast
11:53 AM 75.0 °F 60.1 °F 60% 29.88 in 10.0 mi NW 9.2 mph - N/A   Overcast
12:53 PM 75.0 °F 59.0 °F 57% 29.86 in 10.0 mi WNW 4.6 mph - N/A   Mostly Cloudy
1:53 PM 75.9 °F 59.0 °F 56% 29.84 in 10.0 mi West 4.6 mph - N/A   Mostly Cloudy
2:53 PM 75.9 °F 60.1 °F 58% 29.83 in 10.0 mi North 9.2 mph - N/A   Overcast
3:53 PM 72.0 °F 61.0 °F 68% 29.84 in 10.0 mi NNE 11.5 mph - N/A   Mostly Cloudy
4:53 PM 72.0 °F 60.1 °F 66% 29.86 in 10.0 mi NNE 10.4 mph - N/A   Overcast
5:53 PM 71.1 °F 60.1 °F 68% 29.86 in 10.0 mi NNE 6.9 mph - N/A   Overcast
6:53 PM 71.1 °F 60.1 °F 68% 29.87 in 10.0 mi North 8.1 mph - N/A   Overcast
7:53 PM 69.1 °F 61.0 °F 75% 29.89 in 10.0 mi NNW 6.9 mph - N/A   Overcast
8:53 PM 68.0 °F 60.1 °F 76% 29.91 in 10.0 mi NNW 11.5 mph - N/A   Overcast
9:53 PM 64.9 °F 61.0 °F 87% 29.94 in 10.0 mi North 8.1 mph - 0.01 in Rain Light Rain
10:53 PM 64.0 °F 60.1 °F 87% 29.93 in 10.0 mi North 5.8 mph - 0.00 in   Overcast
11:53 PM 64.0 °F 61.0 °F 90% 29.93 in 10.0 mi North 3.5 mph - 0.01 in Rain Light Rain